Powrót do katalogu

SL-12 DEB

LostHEO
NORAD 43543·DEBRIS·🇷🇺 Russia

Wystrzelony Mar 1, 2010 z Baikonur Cosmodrome

Loading…

Następne Przeloty (najbliższe 24 godziny)

TLE

NieaktualneSource: Space-Track

Epoka: Aug 6, 2018, 18:51 UTC

1 43543U 10007AC  18218.78603953 -.00002964 +00000-0 -73475-2 0  9999
2 43543 066.0042 152.0259 5760804 041.7415 345.2026 04.19578599002860

Śledź SL-12 DEB w czasie rzeczywistym z AllMySat

Download on the App Store